Satellite: DTUSAT-2 Catalog number: 40030 Epoch time: 15077.77743186 Element set: 999 Inclination: 097.9579 deg RA of node: 337.7045 deg Eccentricity: 0.0013839 Arg of perigee: 109.9283 deg Mean anomaly: 250.3447 deg Mean motion: 14.86321830 rev/day Decay rate: 3.310e-05 rev/day^2 Epoch rev: 4035 Checksum: 319
Satellite: ANTELSAT Catalog number: 40034 Epoch time: 15077.80550286 Element set: 999 Inclination: 097.9542 deg RA of node: 331.8045 deg Eccentricity: 0.0061266 Arg of perigee: 050.0221 deg Mean anomaly: 310.6411 deg Mean motion: 14.72375601 rev/day Decay rate: 4.758e-05 rev/day^2 Epoch rev: 3999 Checksum: 297
/EX SB KEPS @ AMSAT $ORB15077.W Orbital Elements 15077.WEATHER
HR AMSAT ORBITAL ELEMENTS FOR WEATHER SATELLITES FROM WA5QGD FORT WORTH,TX March 18, 2015 BID: ORB15077.W TO ALL RADIO AMATEURS BT
Satellite: MET-2/21 Catalog number: 22782 Epoch time: 15077.19958544 Element set: 999 Inclination: 082.5493 deg RA of node: 315.8805 deg Eccentricity: 0.0021533 Arg of perigee: 213.9889 deg Mean anomaly: 261.4303 deg Mean motion: 13.83763728 rev/day Decay rate: 1.1e-07 rev/day^2 Epoch rev: 8801 Checksum: 330
Satellite: OKEAN-4 Catalog number: 23317 Epoch time: 15077.22223802 Element set: 999 Inclination: 082.5407 deg RA of node: 170.8550 deg Eccentricity: 0.0018731 Arg of perigee: 270.8046 deg Mean anomaly: 149.8684 deg Mean motion: 14.86430096 rev/day Decay rate: 1.896e-05 rev/day^2 Epoch rev: 10380 Checksum: 313
Satellite: NOAA-14 Catalog number: 23455 Epoch time: 15077.49719753 Element set: 999 Inclination: 098.7557 deg RA of node: 160.8016 deg Eccentricity: 0.0009062 Arg of perigee: 345.2846 deg Mean anomaly: 144.4100 deg Mean motion: 14.14027978 rev/day Decay rate: 5.8e-07 rev/day^2 Epoch rev: 4271 Checksum: 323
Satellite: NOAA-15 Catalog number: 25338 Epoch time: 15077.47746616 Element set: 999 Inclination: 098.7707 deg RA of node: 076.0669 deg Eccentricity: 0.0011741 Arg of perigee: 073.8442 deg Mean anomaly: 286.4029 deg Mean motion: 14.25581970 rev/day Decay rate: 2.78e-06 rev/day^2 Epoch rev: 87591 Checksum: 359
Satellite: RESURS Catalog number: 25394 Epoch time: 15077.53851277 Element set: 999 Inclination: 098.4547 deg RA of node: 035.9421 deg Eccentricity: 0.0001736 Arg of perigee: 137.4784 deg Mean anomaly: 337.9187 deg Mean motion: 14.24447266 rev/day Decay rate: 5.7e-07 rev/day^2 Epoch rev: 86737 Checksum: 351
Satellite: FENGYUN1 Catalog number: 25730 Epoch time: 15076.84131193 Element set: 999 Inclination: 098.9372 deg RA of node: 041.7794 deg Eccentricity: 0.0020833 Arg of perigee: 051.4006 deg Mean anomaly: 338.6825 deg Mean motion: 14.13068732 rev/day Decay rate: 1.316e-05 rev/day^2 Epoch rev: 81615 Checksum: 306
Satellite: OKEAN-0 Catalog number: 25860 Epoch time: 15077.87722683 Element set: 999 Inclination: 098.0839 deg RA of node: 045.8402 deg Eccentricity: 0.0000931 Arg of perigee: 094.0617 deg Mean anomaly: 296.1515 deg Mean motion: 14.75881939 rev/day Decay rate: 1.143e-05 rev/day^2 Epoch rev: 84266 Checksum: 339
Satellite: NOAA-16 Catalog number: 26536 Epoch time: 15077.46296443 Element set: 999 Inclination: 098.9521 deg RA of node: 143.4881 deg Eccentricity: 0.0011454 Arg of perigee: 126.6236 deg Mean anomaly: 233.5991 deg Mean motion: 14.13081768 rev/day Decay rate: 8.5e-07 rev/day^2 Epoch rev: 74684 Checksum: 342
Satellite: NOAA-17 Catalog number: 27453 Epoch time: 15077.49302648 Element set: 999 Inclination: 098.3343 deg RA of node: 068.0102 deg Eccentricity: 0.0012991 Arg of perigee: 089.2516 deg Mean anomaly: 271.0153 deg Mean motion: 14.24861904 rev/day Decay rate: 1.38e-06 rev/day^2 Epoch rev: 66174 Checksum: 316
Satellite: NOAA-18 Catalog number: 28654 Epoch time: 15077.51452972 Element set: 999 Inclination: 099.1793 deg RA of node: 067.9720 deg Eccentricity: 0.0013702 Arg of perigee: 211.5998 deg Mean anomaly: 148.4351 deg Mean motion: 14.12164221 rev/day Decay rate: 2.04e-06 rev/day^2 Epoch rev: 50627 Checksum: 319
Satellite: NOAA-19 Catalog number: 33591 Epoch time: 15077.45946498 Element set: 999 Inclination: 098.9807 deg RA of node: 027.1688 deg Eccentricity: 0.0015074 Arg of perigee: 067.2610 deg Mean anomaly: 293.0152 deg Mean motion: 14.11893114 rev/day Decay rate: 2.88e-06 rev/day^2 Epoch rev: 31469 Checksum: 345
/EX SB KEPS @ AMSAT $ORB15077.M Orbital Elements 15077.MISC
HR AMSAT ORBITAL ELEMENTS FOR MANNED AND MISCELLANEOUS SATELLITES FROM WA5QGD FORT WORTH,TX March 18, 2015 BID: ORB15077.M TO ALL RADIO AMATEURS BT
Satellite: HUBBLE Catalog number: 20580 Epoch time: 15077.50368056 Element set: 999 Inclination: 028.4709 deg RA of node: 031.9496 deg Eccentricity: 0.0002945 Arg of perigee: 346.5804 deg Mean anomaly: 326.9269 deg Mean motion: 15.07004161 rev/day Decay rate: 4.592e-05 rev/day^2 Epoch rev: 16611 Checksum: 312
Satellite: ISS Catalog number: 25544 Epoch time: 15077.76871856 Element set: 999 Inclination: 051.6458 deg RA of node: 175.6897 deg Eccentricity: 0.0009097 Arg of perigee: 112.1665 deg Mean anomaly: 001.8645 deg Mean motion: 15.55321654 rev/day Decay rate: 2.4048e-04 rev/day^2 Epoch rev: 93396 Checksum: 350
Satellite: CO-58 Catalog number: 28895 Epoch time: 15077.07360943 Element set: 999 Inclination: 097.8229 deg RA of node: 269.6084 deg Eccentricity: 0.0016270 Arg of perigee: 222.2138 deg Mean anomaly: 137.7813 deg Mean motion: 14.62582201 rev/day Decay rate: 1.502e-05 rev/day^2 Epoch rev: 50027 Checksum: 324
Satellite: FALCON Catalog number: 30776 Epoch time: 15077.48671068 Element set: 999 Inclination: 035.4264 deg RA of node: 208.8951 deg Eccentricity: 0.0002012 Arg of perigee: 195.5346 deg Mean anomaly: 243.6550 deg Mean motion: 15.22290031 rev/day Decay rate: 2.3023e-04 rev/day^2 Epoch rev: 44246 Checksum: 292
Satellite: MAST Catalog number: 31126 Epoch time: 15077.77683139 Element set: 999 Inclination: 097.9509 deg RA of node: 049.9772 deg Eccentricity: 0.0090250 Arg of perigee: 217.2131 deg Mean anomaly: 263.7538 deg Mean motion: 14.55893104 rev/day Decay rate: 9.38e-06 rev/day^2 Epoch rev: 42033 Checksum: 329
Satellite: CAPE1 Catalog number: 31130 Epoch time: 15076.88146413 Element set: 999 Inclination: 097.9724 deg RA of node: 046.1690 deg Eccentricity: 0.0096317 Arg of perigee: 239.7323 deg Mean anomaly: 119.4317 deg Mean motion: 14.55275514 rev/day Decay rate: 1.113e-05 rev/day^2 Epoch rev: 41960 Checksum: 308
Satellite: COMPASS Catalog number: 32787 Epoch time: 15077.17117594 Element set: 999 Inclination: 097.6634 deg RA of node: 127.6217 deg Eccentricity: 0.0013048 Arg of perigee: 002.1400 deg Mean anomaly: 357.9871 deg Mean motion: 14.90062625 rev/day Decay rate: 6.099e-05 rev/day^2 Epoch rev: 37295 Checksum: 326
Satellite: AAUSAT2 Catalog number: 32788 Epoch time: 15076.82409271 Element set: 999 Inclination: 097.6644 deg RA of node: 128.6480 deg Eccentricity: 0.0012397 Arg of perigee: 001.0110 deg Mean anomaly: 359.1132 deg Mean motion: 14.91018755 rev/day Decay rate: 5.919e-05 rev/day^2 Epoch rev: 37298 Checksum: 325
Satellite: DO-64 Catalog number: 32789 Epoch time: 15077.20833529 Element set: 999 Inclination: 097.6858 deg RA of node: 138.6202 deg Eccentricity: 0.0010162 Arg of perigee: 338.5013 deg Mean anomaly: 057.3893 deg Mean motion: 14.98270505 rev/day Decay rate: 2.2678e-04 rev/day^2 Epoch rev: 37345 Checksum: 347
Satellite: CO-66 Catalog number: 32791 Epoch time: 15077.07407918 Element set: 999 Inclination: 097.6627 deg RA of node: 125.6384 deg Eccentricity: 0.0013961 Arg of perigee: 007.6683 deg Mean anomaly: 352.4745 deg Mean motion: 14.88263727 rev/day Decay rate: 4.750e-05 rev/day^2 Epoch rev: 37276 Checksum: 361
Satellite: RS-30 Catalog number: 32953 Epoch time: 15077.85005224 Element set: 999 Inclination: 082.5032 deg RA of node: 030.4135 deg Eccentricity: 0.0017568 Arg of perigee: 279.7355 deg Mean anomaly: 080.1745 deg Mean motion: 12.43057673 rev/day Decay rate: 1.0e-07 rev/day^2 Epoch rev: 30938 Checksum: 297
Satellite: METEOR-M Catalog number: 35865 Epoch time: 15077.65189336 Element set: 999 Inclination: 098.5110 deg RA of node: 121.1939 deg Eccentricity: 0.0002902 Arg of perigee: 037.6568 deg Mean anomaly: 322.4818 deg Mean motion: 14.22001686 rev/day Decay rate: 4.27e-06 rev/day^2 Epoch rev: 28534 Checksum: 316
Satellite: RS-38 Catalog number: 35869 Epoch time: 15077.77263904 Element set: 999 Inclination: 098.5048 deg RA of node: 120.9847 deg Eccentricity: 0.0005031 Arg of perigee: 028.3021 deg Mean anomaly: 331.8358 deg Mean motion: 14.22277095 rev/day Decay rate: -1.36e-06 rev/day^2 Epoch rev: 28540 Checksum: 327
Satellite: JUGNU Catalog number: 37839 Epoch time: 15076.24961331 Element set: 999 Inclination: 019.9621 deg RA of node: 039.8551 deg Eccentricity: 0.0019224 Arg of perigee: 113.0712 deg Mean anomaly: 023.0986 deg Mean motion: 14.12434622 rev/day Decay rate: 4.35e-06 rev/day^2 Epoch rev: 17720 Checksum: 292
Satellite: SRMSAT Catalog number: 37841 Epoch time: 15076.34692704 Element set: 999 Inclination: 019.9722 deg RA of node: 064.0982 deg Eccentricity: 0.0012072 Arg of perigee: 044.5945 deg Mean anomaly: 099.3601 deg Mean motion: 14.10452405 rev/day Decay rate: 4.04e-06 rev/day^2 Epoch rev: 17697 Checksum: 307
Satellite: RAX-2 Catalog number: 37853 Epoch time: 15077.09434174 Element set: 999 Inclination: 101.7120 deg RA of node: 243.4701 deg Eccentricity: 0.0200498 Arg of perigee: 341.5920 deg Mean anomaly: 131.6360 deg Mean motion: 14.94563031 rev/day Decay rate: 1.1475e-04 rev/day^2 Epoch rev: 18349 Checksum: 294
Satellite: AUBIESAT Catalog number: 37854 Epoch time: 15077.18123295 Element set: 999 Inclination: 101.7165 deg RA of node: 246.6088 deg Eccentricity: 0.0197304 Arg of perigee: 336.7391 deg Mean anomaly: 075.8531 deg Mean motion: 14.96499375 rev/day Decay rate: 1.2336e-04 rev/day^2 Epoch rev: 18360 Checksum: 342
